Location: Unspecified
(41.9031°N, 12.4386°E)
Time: 03:21:28
(UTC+02:00)

ISS - Pass Details

Date: 03 July 2020
Orbit: 417 x 421 km, 51.6° (Epoch: 08 July)

Event Time Altitude Azimuth Distance (km) Brightness Sun altitude
Exits shadow 04:08:49 16° 270° (W) 1,195 -1.8 -13.7°
Maximum altitude 04:11:09 37° 333° (NNW) 663 -2.6 -13.4°
Drops below altitude 10° 04:14:19 10° 43° (NE) 1,497 0.6 -13.0°
Sets 04:16:31 0° 52° (NE) 2,363 1.9 -12.7°
